This is the latest recevied weather packets stored in our database for station/object HG5PBP-13. If no packets are shown the sender has not sent any weather packets the latest 1 day(s).
| Time | Temp. | Humidity | Pressure | Rain* | Wind** | Luminosity | Snow |
|---|---|---|---|---|---|---|---|
| 1777976059 | 23.33° C | 3% | - | 0 mm | 5.81 m/s, 222° | - | - |
| 1777975755 | 23.33° C | 3% | - | 0 mm | 4.02 m/s, 88° | - | - |
| 1777975455 | 23.33° C | 3% | - | 0 mm | 4.47 m/s, 132° | - | - |
| 1777975155 | 22.78° C | 3% | - | 0 mm | 4.47 m/s, 146° | - | - |
| 1777974855 | 22.78° C | 3% | - | 0 mm | 4.02 m/s, 211° | - | - |
| 1777974555 | 22.78° C | 3% | - | 0 mm | 5.36 m/s, 170° | - | - |
| 1777974255 | 22.78° C | 3% | - | 0 mm | 4.02 m/s, 193° | - | - |
| 1777973955 | 22.22° C | 3% | - | 0 mm | 4.02 m/s, 139° | - | - |
| 1777973655 | 22.22° C | 3% | - | 0 mm | 1.79 m/s, 138° | - | - |
| 1777973355 | 22.22° C | 3% | - | 0 mm | 4.02 m/s, 209° | - | - |
| 1777973055 | 21.67° C | 3% | - | 0 mm | 5.81 m/s, 136° | - | - |
| 1777972755 | 21.67° C | 3% | - | 0 mm | 6.26 m/s, 208° | - | - |
| 1777972455 | 21.11° C | 3% | - | 0 mm | 3.58 m/s, 211° | - | - |
| 1777972155 | 21.11° C | 3% | - | 0 mm | 2.68 m/s, 151° | - | - |
| 1777971855 | 21.11° C | 4% | - | 0 mm | 4.02 m/s, 158° | - | - |
| 1777971555 | 21.11° C | 4% | - | 0 mm | 3.58 m/s, 79° | - | - |
| 1777971255 | 20.56° C | 4% | - | 0 mm | 2.24 m/s, 168° | - | - |
| 1777970955 | 20.56° C | 4% | - | 0 mm | 5.81 m/s, 129° | - | - |
| 1777970655 | 20° C | 4% | - | 0 mm | 1.79 m/s, 163° | - | - |
| 1777970355 | 20° C | 4% | - | 0 mm | 4.47 m/s, 177° | - | - |
| 1777970055 | 19.44° C | 4% | - | 0 mm | 3.58 m/s, 151° | - | - |
| 1777969755 | 19.44° C | 4% | - | 0 mm | 4.47 m/s, 202° | - | - |
| 1777969455 | 19.44° C | 4% | - | 0 mm | 3.58 m/s, 165° | - | - |
| 1777969155 | 19.44° C | 4% | - | 0 mm | 2.24 m/s, 141° | - | - |
| 1777968854 | 18.89° C | 4% | - | 0 mm | 1.79 m/s, 195° | - | - |
* Rain latest hour (hover to see other rain measurements)
** Current wind speed in m/s (hover to see current wind gust speed)